Meteo Giornale » Osservazioni meteo Italia » Torino-Caselle

ore: 16:20 - Osservazioni Meteo Torino-Caselle
Lat. 45° 13' N Lon. 7° 39' E Alt. 301 metri s.l.m.

poco_nuvoloso Europe/Rome

29 °C

Poco Nuvoloso

Temp. 24 Ore

20 °C

31 °C

Nord

5.5 Km/h

Dew point 17 °C

Umidità 48 %

Visibilità  10 Km

Il sole sorge alle ore 06:34

Il sole tramonta alle ore 20:31

Data e Ora Cielo e Fenomeni T °C DP °C Um. % Pres. hPa Vis. km Vento km/h
Oggi h: 16:20 poco_nuvoloso Poco Nuvoloso 29 17 48 1012 10 N 5.5
Oggi h: 15:50 poco_nuvoloso Poco Nuvoloso 29 16 45 1012 10 S/SE 7.4
Oggi h: 15:20 poco_nuvoloso Poco Nuvoloso 29 17 48 1013 10 N 5.5
Oggi h: 14:50 sereno Sereno 29 17 48 1013 10 N 3.7
Oggi h: 14:20 sereno Sereno 28 17 51 1013 10 N 3.7
Oggi h: 13:50 sereno Sereno 28 17 51 1013 10 N 5.5
Oggi h: 13:20 sereno Sereno 28 18 54 1014 10 N 5.5
Oggi h: 12:50 sereno Sereno 27 17 54 1014 10 N 5.5
Oggi h: 12:20 sereno Sereno 27 18 57 1014 10 N 3.7
Oggi h: 11:50 sereno Sereno 26 17 57 1014 10 N 3.7
Oggi h: 11:20 sereno Sereno 25 17 61 1014 10 N 5.5
Oggi h: 10:50 sereno Sereno 25 18 65 1014 10 N 5.5
Oggi h: 10:20 sereno Sereno 24 19 73 1014 10 N 5.5
Oggi h: 09:50 sereno Sereno 23 19 78 1015 10 N 5.5
Oggi h: 09:20 sereno Sereno 22 19 83 1015 10 N 3.7
Oggi h: 08:50 sereno Sereno 22 19 83 1015 10 N 3.7
Oggi h: 08:20 nuvoloso Nuvoloso 21 19 88 1014 10 N 3.7
Oggi h: 07:50 nuvoloso Nuvoloso 21 19 88 1014 10 N 7.4
Oggi h: 07:20 nuvoloso Nuvoloso 20 19 93 1014 10 N 7.4
Oggi h: 06:50 molto_nuvoloso Molto Nuvoloso 20 19 93 1014 10 N/NE 7.4
Oggi h: 06:20 nuvoloso Nuvoloso 20 19 93 1014 10 N 5.5
Oggi h: 05:50 sereno Sereno 20 19 93 1014 10 N 5.5
Oggi h: 05:20 sereno Sereno 21 19 88 1014 10 N 5.5
Oggi h: 04:50 sereno Sereno 21 19 88 1014 10 N 7.4
Oggi h: 04:20 sereno Sereno 20 19 93 1014 10 NO 9.3
Oggi h: 03:50 sereno Sereno 21 19 88 1014 10 N 11.1
Oggi h: 03:20 sereno Sereno 21 19 88 1014 10 N/NE 11.1
Oggi h: 02:50 sereno Sereno 21 19 88 1014 10 NE 9.3
Oggi h: 02:20 sereno Sereno 21 19 88 1014 10 N 11.1
Oggi h: 01:50 sereno Sereno 21 19 88 1014 10 N/NO 11.1
Oggi h: 01:20 coperto_pioggia Pioggia Debole 21 19 88 1014 10 N 7.4
Oggi h: 00:50 molto_nuvoloso Molto Nuvoloso 21 19 88 1015 10 N 5.5
Oggi h: 00:20 nuvoloso Nuvoloso 21 19 88 1015 10 NE 7.4
Ieri h: 23:50 sereno Sereno 21 19 88 1014 10 E/NE 9.3
Ieri h: 23:20 sereno Sereno 23 19 78 1015 10 E/NE 11.1
Ieri h: 22:50 sereno Sereno 22 19 83 1015 10 E/NE 11.1
Ieri h: 22:20 sereno Sereno 21 18 82 1015 10 E/NE 9.3
Ieri h: 21:50 sereno Sereno 21 19 88 1015 10 E/NE 9.3
Ieri h: 21:20 poco_nuvoloso Poco Nuvoloso 23 20 83 1014 10 E 11.1
Ieri h: 20:50 nuvoloso_temporali Temporale con Pioggia 26 20 69 1014 6 E/NE 13
Ieri h: 20:20 nuvoloso Nuvoloso 27 18 57 1014 10 E 11.1
Ieri h: 19:50 nuvoloso Nuvoloso 28 18 54 1014 10 E 11.1
Ieri h: 19:20 molto_nuvoloso Molto Nuvoloso 28 18 54 1014 10 E/NE 11.1
Ieri h: 18:50 molto_nuvoloso Molto Nuvoloso 29 18 51 1014 10 E/NE 9.3
Ieri h: 18:20 nuvoloso Nuvoloso 30 18 48 1014 10 E/NE 7.4
Ieri h: 17:50 nuvoloso Nuvoloso 31 17 43 1015 10 NE 7.4
Ieri h: 17:20 nuvoloso Nuvoloso 31 17 43 1015 10 E/NE 7.4
Ieri h: 16:50 sereno Sereno 31 16 40 1015 10 N 5.5